• Processing (Info)

  • MPEC 2012-R22 : S/2000 J 11

    The following Minor Planet Electronic Circular may be linked-to from your own Web pages, but must not otherwise be redistributed electronically.

    A form allowing access to any MPEC is at the bottom of this page.


    Read MPEC 2012-R21 Read MPEC 2012-R23


    M.P.E.C. 2012-R22                                Issued 2012 Sept. 11, 00:42 UT
    
         The Minor Planet Electronic Circulars contain information on unusual
             minor planets and routine data on comets.  They are published
       on behalf of Commission 20 of the International Astronomical Union by the
              Minor Planet Center, Smithsonian Astrophysical Observatory,
                              Cambridge, MA 02138, U.S.A.
    
                 Prepared using the Tamkin Foundation Computer Network
    
                                  MPC@CFA.HARVARD.EDU
                URL http://www.minorplanetcenter.net/    ISSN 1523-6714
    
                                      S/2000 J 11
    
                               Revision to MPEC 2001-T59
    
    Additional Observations:
        SK00J110  C2010 09 11.20586 00 03 19.259-00 53 48.33               cER022304
        SK00J110  C2010 09 11.24221 00 03 18.341-00 53 55.30               cER022304
        SK00J110  C2010 09 11.25857 00 03 17.895-00 53 58.33               cER022304
        SK00J110  C2010 09 12.29319 00 02 53.266-00 57 24.31         23.0 rcER022304
        SK00J110  C2010 09 12.30739 00 02 52.930-00 57 27.12               cER022304
        SK00J110  C2010 09 12.32123 00 02 52.551-00 57 30.21               cER022304
        SK00J110  C2011 09 27.37634 02 27 42.420+12 36 49.23         23.1 rcER022304
        SK00J110  C2011 09 27.38603 02 27 42.141+12 36 47.94               cER022304
        SK00J110  C2011 09 27.39553 02 27 41.926+12 36 46.47               cER022304
        SK00J110  C2011 09 28.30856 02 27 16.382+12 34 52.29               cER022304
        SK00J110  C2011 09 28.32231 02 27 15.950+12 34 50.51               cER022304
        SK00J110  C2011 10 20.16311 02 15 04.068+11 43 07.87               cER022304
        SK00J110  C2011 10 20.17069 02 15 03.785+11 43 06.35               cER022304
        SK00J110  C2011 10 20.17787 02 15 03.520+11 43 05.37               cER022304
        SK00J110  C2011 10 22.16567 02 13 50.053+11 38 06.86               cER022304
        SK00J110  C2011 10 22.18993 02 13 49.142+11 38 03.29         22.8 rcER022304
        SK00J110  C2011 11 28.04199 01 54 05.715+10 24 08.94         23.3 rcER022304
        SK00J110  C2011 11 28.04484 01 54 05.653+10 24 08.66               cER022304
        SK00J110  C2011 11 28.07385 01 54 04.990+10 24 06.44               cER022304
    
    Observer details:
    304 Las Campanas Observatory.  Observers S. S. Sheppard, M. Brozovic,
        R. Jacobson.
    
    Orbital elements:
    S/2000 J 11
    Epoch 2012 Sept. 30.0 TT = JDT 2456200.5                MPC
    M 189.30330              (2000.0)            P               Q
    n   1.31195066     Peri.  217.01970     -0.61409379     -0.63378819
    a   0.0813756      Node   276.24112     +0.78860741     -0.46902933
    e   0.2108600      Incl.   28.23731     +0.03141929     -0.61508049
    P   0.75           H   16.1           P/d   274.40
    From 35 observations 2000 Dec. 5-2011 Nov. 28, mean residual 0".41.
    
    Residuals in seconds of arc
    001205 568  0.1+  0.1-    001221 568  0.2+  0.1-    110927 304  0.9+  0.2+
    001205 568  0.4+  0.2-    001221 568  0.4+  0.1+    110928 304  0.5-  0.6+
    001205 568  0.0   0.3-    001231 568  0.4+  0.1-    110928 304  1.0-  0.6+
    001205 568  0.2-  0.4-    001231 568  0.8+  0.1-    111020 304  0.0   0.0
    001206 568  0.4+  0.4-    100911 304  1.2+  0.1+    111020 304  0.1+  0.4-
    001206 568  0.4+  0.3-    100911 304  0.7+  0.3+    111020 304  0.2+  0.3-
    001207 568  0.0   0.2+    100911 304  0.0   0.5+    111022 304  0.1-  0.1-
    001207 568  0.1+  0.3-    100912 304  0.5-  0.5+    111022 304  0.0   0.0
    001207 568  0.0   0.2+    100912 304  0.3-  0.5+    111128 304  0.7-  0.0
    001216 568  0.1+  0.1+    100912 304  0.8-  0.2+    111128 304  0.7-  0.1-
    001217 568  0.3-  0.2+    110927 304  0.2+  0.6+    111128 304  0.7-  0.4-
    001217 568  0.2+  0.4+    110927 304  0.1+  0.5+
    
    Gareth V. Williams           (C) Copyright 2012 MPC           M.P.E.C. 2012-R22
    

    Read MPEC 2012-R21 Read MPEC 2012-R23


    MPEC number:

    Enter an MPEC number in one of the following forms:

    • 1997-B01 (the full form)
    • J97B01 (the packed version of the full form)
    • B01 (the abbreviated form)